Terminal Aerodrome Forecast
Issued by NWS

Home | Current Version | Previous Version | Text Only | Print | Product List | Glossary On
Versions: 1 2 3 4 5 6 7 8 9 10 11 12 13 14 15 16 17 18 19 20 21 22 23 24 25 26 27 28 29 30 31 32 33 34 35 36 37 38 39 40 41 42 43 44 45 46 47 48
000
FTUS42 KRAH 041745 CCA
TAFRWI
TAF COR
KRWI 041745Z 0418/0518 24012G24KT P6SM VCTS SCT045CB BKN120
      TEMPO 0418/0421 VRB20G35KT 2SM TSRA SCT025CB BKN040
     FM050100 23006KT P6SM SCT060 SCT150
     FM051500 26010KT P6SM BKN150=

USA.gov is the U.S. government's official web portal to all federal, state and local government web resources and services.